Location: Canyam�s
(41.5996°N, 2.4450°E)
Time: 21:49:55
(UTC+00:00)

Cosmos 1975 Rocket - Pass Details

Date: 06 June 2020
Orbit: 603 x 635 km, 82.5° (Epoch: 04 July)

Event Time Altitude Azimuth Distance (km) Brightness Sun altitude
Exits shadow 21:30:50 16° 207° (SSW) 1,649 4.9 -18.1°
Maximum altitude 21:34:15 53° 280° (W) 769 3.7 -18.5°
Drops below altitude 10° 21:38:33 10° 358° (N) 1,987 6.5 -18.9°
Sets 21:40:50 0° 3° (N) 2,892 7.4 -19.1°
